Preview of NWS' New Version of Forecast
This preview is not operational and should not be used for support decisions.

Regional Weather Roundup (RWR)

Issued by National Weather Service (NWS)

                            
000
ASCA42 TJSJ 182010
RWRPR 
PUERTO RICO/U.S. VIRGIN ISLANDS HOURLY WEATHER ROUNDUP
NATIONAL WEATHER SERVICE SAN JUAN PR
400 PM AST TUE JUN 18 2019

PRZ001>002-007>008-010-182100-
PUERTO RICO
  
CITY           SKY/WX    TMP DP  RH WIND       PRES   REMARKS
SAN JUAN LMM   MOSUNNY   86  75  70 NE24      30.05S HX  95           
AGUADILLA      PTSUNNY   84  75  74 E15G29    30.06F HX  92           
CEIBA          CLOUDY    88  75  66 E13G18    30.07S HX  97           
$$

VIZ001>002-182100-
U.S. VIRGIN ISLANDS
  
CITY           SKY/WX    TMP DP  RH WIND       PRES   REMARKS
CHARLOTTE AMA  PTSUNNY   88  73  62 E17       30.04F HX  96           
CHRISTIANSTED  MOSUNNY   88  72  58 E17       30.04F HX  94           
$$

HOURLY WEATHER ROUNDUP FOR THE NEWS MEDIA
  
CITY           SKY/WX    TMP DP  RH WIND       PRES   REMARKS
ORLANDO        FAIR      79  75  87 SW7       30.01F                  
NEW YORK       HVY RAIN  69  69 100 SE8       29.88  FOG              
NEWARK         CLOUDY    73  70  90 VRB5      29.86F                  
CHICAGO        FAIR      78  58  49 E7        29.90F                  
HARTFORD       LGT RAIN  66  63  90 SE10      29.92F                  
BOSTON         LGT RAIN  66  64  93 CALM      29.92  FOG              
DALLAS         MOSUNNY   91  64  40 VRB6      29.88F HX  92           
PHILADELPHIA   LGT RAIN  78  71  79 SW12      29.84F                  
LOS ANGELES    CLOUDY    68  58  70 W10       29.98F                  
WASHINGTON DC  PTSUNNY   86  66  51 W9G20     29.89F